Overview Statistics Trail Chart Weather Telemetry Raw packets
 

This is the latest recevied weather packets stored in our database for station/object JF7BTK-10. If no packets are shown the sender has not sent any weather packets the latest 10 day(s).

<< 15 16 17 18 19 20 21 >>
Time Temp. Humidity Pressure Rain* Wind** Luminosity Snow
1788515149 19.44° C 78% 1007.9 hPa 0 mm - - -
1788514986 19.44° C 78% 1008 hPa 0 mm - - -
1788514849 19.44° C 78% 1007.9 hPa 0 mm - - -
1788514251 19.44° C 77% 1007.9 hPa 0 mm - - -
1788514087 19.44° C 77% 1008 hPa 0 mm - - -
1788513649 20° C 77% 1007.9 hPa 0 mm - - -
1788513349 20° C 76% 1007.9 hPa 0 mm - - -
1788513187 20° C 76% 1007.8 hPa 0 mm - - -
1788512749 20° C 75% 1007.9 hPa 0 mm - - -
1788512450 20.56° C 75% 1007.9 hPa 0 mm - - -
1788512287 20.56° C 75% 1007.9 hPa 0 mm - - -
1788511388 21.11° C 73% 1007.8 hPa 0 mm - - -
1788511251 21.11° C 73% 1007.8 hPa 0 mm - - -
1788510651 21.67° C 71% 1007.8 hPa 0 mm - - -
1788510486 21.67° C 71% 1008 hPa 0 mm - - -
1788509586 22.22° C 69% 1007.8 hPa 0 mm - - -
1788508686 22.78° C 67% 1007.6 hPa 0 mm - - -
1788508551 22.78° C 67% 1007.9 hPa 0 mm - - -
1788508251 22.78° C 68% 1007.7 hPa 0 mm - - -
1788507951 22.78° C 70% 1007.6 hPa 0 mm - - -
1788507788 22.22° C 70% 1007.7 hPa 0 mm - - -
1788506888 22.78° C 69% 1007.5 hPa 0 mm - - -
1788506775 22.78° C 69% 1007.3 hPa 0 mm - - -
1788506450 23.33° C 70% 1007.5 hPa 0 mm - - -
1788506150 22.78° C 70% 1007.5 hPa 0 mm - - -

* Rain latest hour (hover to see other rain measurements)
** Current wind speed in m/s (hover to see current wind gust speed)